Regional Weather Roundup
Issued by NWS Midland/Odessa, TX

Home | Current Version | Previous Version | Text Only | Print | Product List | Glossary On
Versions: 1 2 3 4 5 6 7 8 9 10 11 12 13 14 15 16 17 18 19 20 21 22 23 24 25 26 27 28 29 30 31 32 33 34 35 36 37 38 39 40 41 42 43 44 45 46 47 48 49 50
000
ASUS44 KMAF 271410
RWRMAF
MIDLAND AREA WEATHER ROUNDUP
NATIONAL WEATHER SERVICE MIDLAND TX
800 AM CST SAT DEC 27 2014

...IN SOUTHWEST TEXAS AND SOUTHEAST NEW MEXICO...

CITY           SKY/WX    TMP DP  RH WIND       PRES   REMARKS
ALPINE         CLOUDY    33  30  90 E5        30.22R WCI  29
ANDREWS        LGT RAIN  36  34  92 N12       30.20R WCI  28
ARTESIA        CLOUDY    28  23  80 NW10G17   30.23R WCI  19
BIG SPRING     CLOUDY    38  32  77 N14G20    30.23R WCI  30
CARLSBAD       LGT SNOW  33  32  96 CALM      30.21R VSB 3/4
DRYDEN           N/A     46  32  58 N16       30.13R WCI  39
FORT STOCKTON  MOCLDY    35  31  85 NW3       30.18R
GUAD PASS      NOT AVBL
HOBBS          LGT SNOW  30  30 100 N9        30.22R WCI  22
MARFA          CLOUDY    36  30  80 N12       30.15R WCI  27
MIDLAND AIRPK  CLOUDY    40  34  78 N8        30.21R WCI  35
MIDLAND INTL   CLOUDY    39  33  79 NE13      30.20R WCI  31
ODESSA         CLOUDY    39  32  76 N12       30.20R WCI  32
PECOS          CLOUDY    40  34  77 N5        30.22R WCI  37
PRESIDIO       FAIR      46  30  54 N7        30.11R
SEMINOLE       LGT SNOW  32  32 100 NE8       30.23R WCI  25
SNYDER         CLOUDY    32  28  85 N15       30.24R WCI  22
WINK           LGT RAIN  38  33  82 N13       30.18R WCI  30
$$
...OTHER STATIONS IN TEXAS...

CITY           SKY/WX    TMP DP  RH WIND       PRES   REMARKS
ABILENE        LGT RAIN  34  32  92 N17G23    30.24R WCI  23
AMARILLO       MOCLDY    19  16  88 N6        30.25R WCI  11
AUSTIN         LGT RAIN  57  56  96 N16G26    30.03R FOG
BROWNSVILLE    MOCLDY    71  69  93 S12       29.98R FOG
CORPUS CHRISTI CLOUDY    70  68  93 S14       29.95R FOG
DALLAS FTW     CLOUDY    42  34  73 N21G29    30.20R WCI  33
DEL RIO        CLOUDY    53  37  54 N12G18    30.08R
EL PASO        CLOUDY    35  33  92 CALM      30.16R
HOUSTON INT    CLOUDY    69  67  93 S5        30.02R
LUBBOCK        FLURRIES  27  24  89 N12       30.24R WCI  17
SAN ANGELO     CLOUDY    40  32  73 NE20      30.20R WCI  30
SAN ANTONIO    CLOUDY    65  62  90 NE5       30.02R FOG
WACO           CLOUDY    46  37  71 N23G29    30.16R WCI  38
WICHITA FALLS  NOT AVBL
$$
...OTHER LOCATIONS IN NEW MEXICO...

CITY           SKY/WX    TMP DP  RH WIND       PRES   REMARKS
ALAMAGORDO     CLOUDY    28  25  86 CALM      30.18R
ALBUQUERQUE    CLEAR     20  11  68 N5        30.17R WCI  13
CANNON AFB     MOCLDY    20  17  88 NE9       30.21R WCI  10
CLOVIS         MOCLDY    19  16  86 N9        30.22R WCI   9
HOLLOMAN AFB   CLOUDY    28  24  85 SE3       30.17R
ROSWELL        MOCLDY    26  20  77 N12       30.22R WCI  16
RUIDOSO        CLEAR     14   9  79 CALM      30.12R
SANTA FE       CLEAR      4   0  83 NW3       30.12R
TRUTH OR CONSE CLEAR     21   9  59 NW7       30.16R WCI  12
TUCUMCARI      CLOUDY    19  16  88 CALM      30.24R
$$


USA.gov is the U.S. government's official web portal to all federal, state and local government web resources and services.